Flag for Canada Weather past 2 weeks in Laval, Quebec, Canada

Now
32 °F

Passing clouds.


Feels Like: 26 °F
Forecast: 36 / 62 °F
Wind: 6 mph from West

Location: Montreal / Mirabel

Current Time: May 23, 2015 at 2:25:56 AM

Latest Report: May 23, 2015 at 1:00 AM


Visibility: 25 mi

Pressure: 30.21 "Hg

Humidity: 69%

Dew point: 23 °F

Location of LavalLocation

Historic Weather in Laval — Graph

°F

Laval temperature yesterday

Maximum temperature yesterday: 54 °F (at 12:00 AM)
Minimum temperature yesterday: 36 °F (at 11:00 PM)
Average temperature yesterday: 48 °F

Past Weeks' High & Low Weather Summary

 TemperatureHumidityPressure
High84 °F (May 8, 5:00 PM)100% (May 10, 1:00 AM)30.42 "Hg (May 10, 1:00 AM)
Low32 °F (May 23, 1:00 AM)21% (May 20, 6:00 PM)29.58 "Hg (May 12, 4:00 PM)
Average58 °F64%30.02 "Hg
* Reported May 8 1:00 AM — May 23 1:00 AM, Laval, Weather by CustomWeather, © 2015

Note: Actual official high and low records may vary slightly from our data, if they occured in-between our weather recording intervals... More about our weather records

Advertising

Laval weather history for previous 24 hours

 ConditionsComfort  
Time TempWeatherWind HumidityBarometerVisibility
1:00 AM
Sat, May 23
32 °FPassing clouds.6 mph69%30.21 "Hg25 mi
12:00 AM36 °FClear.7 mph56%30.19 "Hg25 mi
11:00 PM
Fri, May 22
36 °FPassing clouds.5 mph56%30.17 "Hg25 mi
10:00 PM37 °FPassing clouds.3 mph52%30.17 "Hg25 mi
9:00 PM39 °FPassing clouds.3 mph42%30.14 "Hg25 mi
8:00 PM43 °FPassing clouds.13 mph34%30.11 "Hg45 mi
7:00 PM45 °FPassing clouds.16 mph37%30.09 "Hg45 mi
6:00 PM46 °FScattered clouds.15 mph37%30.07 "Hg45 mi
5:00 PM48 °FScattered clouds.17 mph34%30.04 "Hg45 mi
4:00 PM50 °FScattered clouds.16 mph35%30.01 "Hg45 mi
3:00 PM54 °FPartly sunny.13 mph35%29.97 "Hg45 mi
2:00 PM50 °FBroken clouds.9 mph54%29.96 "Hg25 mi
1:00 PM52 °FScattered showers. Partly sunny.9 mph47%29.95 "Hg45 mi
12:00 PM54 °FPartly sunny.8 mph47%29.93 "Hg45 mi
11:00 AM52 °FPartly sunny.8 mph47%29.92 "Hg45 mi
10:00 AM48 °FPartly sunny.3 mph54%29.91 "Hg45 mi
9:00 AM46 °FPartly sunny.2 mph71%29.90 "Hg45 mi
8:00 AM46 °FPartly sunny.10 mph71%29.88 "Hg45 mi
7:00 AM46 °FBroken clouds.7 mph82%29.85 "Hg45 mi
6:00 AM46 °FSprinkles. Partly cloudy.3 mph93%29.81 "Hg20 mi
5:00 AM48 °FSprinkles. Mostly cloudy.7 mph82%29.80 "Hg25 mi
4:00 AM48 °FSprinkles. Overcast.5 mph82%29.76 "Hg25 mi
3:00 AM50 °FMostly cloudy.2 mph76%29.77 "Hg25 mi
2:00 AM52 °FOvercast.5 mph67%29.76 "Hg25 mi
Weather by CustomWeather, © 2015

See weather overviewHow to use our weather pages